1487800800.08,21555,10.63,72148.3,-3.55,-4.61,-4.69,0,*5D
1487800801.3,21556,10.63,72142.5,-3.57,-4.65,-4.77,0,*57
1487800802.55,21557,10.63,72162.8,-3.57,-4.73,-4.77,0,*51
1487800803.77,21558,10.63,72162.0,-3.57,-4.65,-4.73,0,*5D
1487800804.97,21559,10.63,72178.3,-3.57,-4.65,-4.65,0,*5B
1487800806.17,21560,10.63,72182.5,-3.57,-4.53,-4.61,0,*50
1487800807.4,21561,10.63,72174.5,-3.57,-4.61,-4.69,0,*58
1487800808.65,21562,10.63,72180.0,-3.57,-4.85,-4.89,0,*5F
1487800809.89,21563,10.63,72176.8,-3.57,-4.85,-4.89,0,*5E
1487800811.14,21564,10.63,72180.5,-3.57,-4.73,-4.77,0,*51
1487800812.39,21565,10.63,72188.8,-3.57,-4.73,-4.85,0,*5D
1487800813.66,21566,10.63,72172.3,-3.59,-4.73,-4.73,0,*59
1487800814.86,21567,10.63,72158.0,-3.57,-4.65,-4.65,0,*56
1487800816.1,21568,10.63,72152.8,-3.57,-4.73,-4.73,0,*59
1487800817.35,21569,10.63,72156.3,-3.57,-4.73,-4.73,0,*58
1487800818.6,21570,10.63,72152.8,-3.57,-4.85,-4.85,0,*50
1487800819.84,21571,10.63,72160.8,-3.57,-4.77,-4.73,0,*55
1487800821.04,21572,10.63,72170.8,-3.57,-4.65,-4.65,0,*52
1487800822.24,21573,10.63,72174.5,-3.57,-4.61,-4.53,0,*52
1487800823.44,21574,10.63,72182.3,-3.57,-4.53,-4.53,0,*54
1487800824.67,21575,10.63,72184.3,-3.55,-4.57,-4.57,0,*57
1487800825.87,21576,10.63,72194.5,-3.57,-4.61,-4.53,0,*57
1487800827.07,21577,10.63,72204.3,-3.57,-4.53,-4.53,0,*57
1487800828.27,21578,10.63,72208.5,-3.57,-4.53,-4.53,0,*58
1487800829.48,21579,10.63,72206.8,-3.57,-4.61,-4.65,0,*5D
1487800830.7,21580,10.63,72204.3,-3.55,-4.57,-4.49,0,*52
1487800831.92,21581,10.63,72216.3,-3.55,-4.49,-4.57,0,*53
1487800833.14,21582,10.63,72218.0,-3.57,-4.65,-4.73,0,*5A
1487800834.36,21583,10.63,72218.3,-3.55,-4.49,-4.61,0,*54
1487800835.56,21584,10.63,72212.3,-3.57,-4.53,-4.65,0,*5E
1487800836.79,21585,10.63,72208.8,-3.55,-4.57,-4.57,0,*58
1487800838.01,21586,10.63,72198.3,-3.55,-4.49,-4.57,0,*54
1487800839.25,21587,10.63,72198.8,-3.55,-4.69,-4.57,0,*57
1487800840.47,21588,10.63,72204.0,-3.55,-4.61,-4.57,0,*50
1487800841.67,21589,10.63,72200.5,-3.57,-4.53,-4.65,0,*53
1487800842.87,21590,10.63,72198.5,-3.57,-4.53,-4.61,0,*5F
1487800844.07,21591,10.63,72194.3,-3.57,-4.53,-4.53,0,*5F
1487800845.27,21592,10.63,72218.0,-3.57,-4.53,-4.53,0,*5C
1487800846.47,21593,10.63,72238.8,-3.57,-4.65,-4.61,0,*59
1487800847.7,21594,10.63,72230.0,-3.57,-4.65,-4.73,0,*5D
1487800848.96,21595,10.63,72228.5,-3.55,-4.69,-4.73,0,*52
1487800850.22,21596,10.63,72228.8,-3.55,-4.69,-4.69,0,*5A
1487800851.47,21597,10.63,72188.3,-3.57,-4.73,-4.77,0,*5D
1487800852.71,21598,10.63,72192.5,-3.57,-4.77,-4.85,0,*5B
1487800853.96,21599,10.63,72192.8,-3.57,-4.85,-4.85,0,*57
1487800855.23,21600,10.63,72198.0,-3.55,-4.81,-4.81,0,*56
1487800856.43,21601,10.63,72200.0,-3.57,-4.65,-4.65,0,*55
1487800857.7,21602,10.63,72212.5,-3.55,-4.69,-4.69,0,*54
1487800858.94,21603,10.63,72200.5,-3.55,-4.61,-4.73,0,*56
1487800860.16,21604,10.63,72196.3,-3.57,-4.65,-4.73,0,*57
1487800861.38,21605,10.63,72188.3,-3.57,-4.77,-4.65,0,*52
1487800862.63,21606,10.63,72150.3,-3.57,-4.73,-4.73,0,*52
1487800863.87,21607,10.63,72162.3,-3.57,-4.77,-4.85,0,*5E
1487800865.12,21608,10.63,72166.0,-3.57,-4.85,-4.85,0,*5C
1487800866.36,21609,10.63,72158.3,-3.57,-4.77,-4.77,0,*5D
1487800867.61,21610,10.63,72180.5,-3.57,-4.85,-4.85,0,*55
1487800868.88,21611,10.63,72190.8,-3.55,-4.73,-4.81,0,*5B
1487800870.12,21612,10.63,72194.5,-3.57,-4.73,-4.77,0,*53
1487800871.34,21613,10.63,72186.3,-3.57,-4.65,-4.77,0,*55
1487800872.59,21614,10.63,72182.3,-3.57,-4.73,-4.77,0,*55
1487800873.83,21615,10.63,72186.8,-3.57,-4.73,-4.77,0,*54
1487800875.06,21616,10.63,72172.3,-3.57,-4.65,-4.73,0,*54
1487800876.3,21617,10.63,72166.0,-3.57,-4.73,-4.77,0,*56
1487800877.55,21618,10.63,72164.0,-3.57,-4.73,-4.85,0,*54
1487800878.79,21619,10.63,72160.8,-3.57,-4.85,-4.77,0,*51
1487800880.06,21620,10.63,72184.8,-3.59,-4.73,-4.77,0,*5C
1487800881.31,21621,10.63,72176.5,-3.59,-4.73,-4.65,0,*5E
1487800882.58,21622,10.63,72166.3,-3.59,-4.73,-4.77,0,*5E
1487800883.85,21623,10.63,72160.8,-3.59,-4.73,-4.77,0,*5F
1487800885.11,21624,10.63,72170.0,-3.59,-4.73,-4.77,0,*58
1487800886.38,21625,10.63,72172.5,-3.59,-4.73,-4.77,0,*59
1487800887.63,21626,10.63,72172.0,-3.59,-4.65,-4.73,0,*59
1487800888.9,21627,10.63,72170.8,-3.59,-4.73,-4.77,0,*5B
1487800890.14,21628,10.63,72180.5,-3.57,-4.73,-4.77,0,*5A
1487800891.41,21629,10.63,72174.0,-3.59,-4.77,-4.77,0,*51
1487800892.65,21630,10.63,72172.5,-3.59,-4.65,-4.73,0,*5E
1487800893.89,21631,10.63,72164.8,-3.61,-4.77,-4.77,0,*53
1487800895.12,21632,10.63,72164.8,-3.57,-4.65,-4.73,0,*52
1487800896.32,21633,10.63,72168.0,-3.57,-4.65,-4.65,0,*54
1487800897.52,21634,10.63,72174.0,-3.57,-4.61,-4.65,0,*57
1487800898.75,21635,10.63,72178.0,-3.55,-4.57,-4.65,0,*51
1487800899.95,21636,10.63,72174.8,-3.57,-4.61,-4.65,0,*55
1487800901.18,21637,10.63,72172.5,-3.57,-4.65,-4.73,0,*57
1487800902.38,21638,10.63,72174.8,-3.57,-4.53,-4.53,0,*5F
1487800903.58,21639,10.63,72176.0,-3.57,-4.53,-4.53,0,*5E
1487800904.82,21640,10.63,72164.3,-3.57,-4.73,-4.73,0,*50
1487800906.09,21641,10.63,72176.0,-3.55,-4.73,-4.81,0,*5E
1487800907.34,21642,10.63,72172.0,-3.57,-4.77,-4.85,0,*5F
1487800908.6,21643,10.63,72174.5,-3.59,-4.73,-4.77,0,*59
1487800909.87,21644,10.63,72186.5,-3.59,-4.77,-4.85,0,*57
1487800911.12,21645,10.63,72194.0,-3.61,-4.81,-4.81,0,*50
1487800912.38,21646,10.63,72184.3,-3.55,-4.73,-4.73,0,*54
1487800913.64,21647,10.63,72198.3,-3.57,-4.89,-4.89,0,*57
1487800914.88,21648,10.63,72196.0,-3.57,-4.77,-4.77,0,*58
1487800916.13,21649,10.63,72094.5,-3.57,-4.73,-4.85,0,*50
1487800917.4,21650,10.63,72074.5,-3.59,-4.85,-4.85,0,*5F
1487800918.64,21651,10.63,72066.8,-3.61,-4.81,-4.81,0,*55
1487800919.91,21652,10.63,72066.5,-3.59,-4.73,-4.77,0,*59
1487800921.16,21653,10.63,72128.5,-3.57,-4.85,-4.85,0,*52
1487800922.4,21654,10.63,72140.8,-3.61,-4.81,-4.81,0,*50
1487800923.67,21655,10.63,72080.3,-3.59,-4.77,-4.85,0,*57
1487800924.92,21656,10.63,72118.8,-3.61,-4.85,-4.85,0,*52
1487800926.19,21657,10.63,72138.3,-3.59,-4.85,-4.85,0,*58
1487800927.45,21658,10.63,72136.5,-3.59,-4.73,-4.77,0,*53
1487800928.7,21659,10.63,72132.3,-3.61,-4.69,-4.69,0,*5D
1487800929.94,21660,10.63,72148.5,-3.61,-4.77,-4.81,0,*5E
1487800931.19,21661,10.63,72176.8,-3.59,-4.65,-4.77,0,*5E
1487800932.41,21662,10.63,72158.3,-3.57,-4.65,-4.73,0,*57
1487800933.68,21663,10.63,72154.8,-3.59,-4.77,-4.77,0,*5F
1487800934.94,21664,10.63,72154.8,-3.59,-4.77,-4.77,0,*58
1487800936.21,21665,10.63,72158.3,-3.59,-4.85,-4.89,0,*55
1487800937.46,21666,10.63,72124.0,-3.61,-4.81,-5.03,0,*5A
1487800938.73,21667,10.63,72100.3,-3.59,-4.77,-4.85,0,*56
1487800940.0,21668,10.63,72128.0,-3.59,-4.73,-4.85,0,*5D
1487800941.25,21669,10.63,72154.5,-3.61,-4.73,-4.73,0,*5E
1487800942.52,21670,10.63,72154.3,-3.59,-4.73,-4.77,0,*59
1487800943.78,21671,10.63,72108.0,-3.59,-4.77,-4.77,0,*5C
1487800945.05,21672,10.63,72070.3,-3.59,-4.77,-4.77,0,*5F
1487800946.29,21673,10.63,72036.8,-3.61,-4.81,-4.81,0,*55
1487800947.54,21674,10.63,72044.5,-3.61,-4.89,-4.93,0,*59
1487800948.79,21675,10.63,72110.5,-3.61,-4.89,-4.93,0,*58
1487800950.04,21676,10.63,72150.3,-3.61,-4.81,-4.81,0,*50
1487800951.29,21677,10.63,72112.8,-3.61,-4.89,-4.81,0,*59
1487800952.53,21678,10.63,72136.0,-3.61,-4.77,-4.77,0,*5E
1487800953.77,21679,10.63,72186.5,-3.61,-4.77,-4.77,0,*5F
1487800955.02,21680,10.63,72150.8,-3.59,-4.65,-4.73,0,*55
1487800956.29,21681,10.63,72174.3,-3.59,-4.73,-4.85,0,*5A
1487800957.51,21682,10.63,72138.8,-3.59,-4.65,-4.65,0,*50
1487800958.74,21683,10.63,72144.8,-3.61,-4.57,-4.69,0,*57
1487800959.98,21684,10.63,72064.8,-3.61,-4.77,-4.77,0,*5D
1487800961.22,21685,10.63,72090.0,-3.61,-4.77,-4.77,0,*5C
1487800962.47,21686,10.63,72024.8,-3.61,-4.69,-4.77,0,*50
1487800963.71,21687,10.63,71998.5,-3.61,-4.89,-4.93,0,*55
1487800964.97,21688,10.63,72020.5,-3.61,-5.03,-5.07,0,*55
1487800966.24,21689,10.63,72048.8,-3.59,-4.77,-4.85,0,*56
1487800967.49,21690,10.63,72088.0,-3.61,-4.81,-4.81,0,*58
1487800968.73,21691,10.63,72106.3,-3.59,-4.65,-4.77,0,*51
1487800969.96,21692,10.63,72154.5,-3.59,-4.61,-4.65,0,*55
1487800971.16,21693,10.63,72162.5,-3.61,-4.65,-4.65,0,*5B
1487800972.39,21694,10.63,72150.0,-3.55,-4.57,-4.49,0,*54
1487800973.61,21695,10.63,72182.8,-3.59,-4.49,-4.57,0,*59
1487800974.81,21696,10.63,72202.3,-3.61,-4.53,-4.53,0,*5E
1487800976.03,21697,10.63,72192.8,-3.59,-4.65,-4.65,0,*54
1487800977.28,21698,10.63,72208.8,-3.59,-4.61,-4.73,0,*58
1487800978.48,21699,10.63,72196.0,-3.57,-4.65,-4.65,0,*54
1487800979.73,21700,10.63,72150.0,-3.59,-4.65,-4.77,0,*58
1487800980.98,21701,10.63,72170.0,-3.57,-4.73,-4.77,0,*50
1487800982.22,21702,10.63,72206.8,-3.61,-4.81,-4.81,0,*52
1487800983.45,21703,10.63,72246.0,-3.59,-4.65,-4.65,0,*58
1487800984.7,21704,10.63,72150.3,-3.59,-4.65,-4.85,0,*51
1487800985.97,21705,10.63,72172.0,-3.59,-4.85,-4.89,0,*52
1487800987.22,21706,10.63,72164.5,-3.61,-4.81,-4.89,0,*5E
1487800988.46,21707,10.63,72164.8,-3.61,-4.81,-4.77,0,*5E
1487800989.7,21708,10.63,72152.5,-3.61,-4.69,-4.77,0,*57
1487800990.95,21709,10.63,72148.8,-3.59,-4.65,-4.73,0,*55
1487800992.19,21710,10.63,72184.3,-3.61,-4.69,-4.77,0,*5E
1487800993.44,21711,10.63,72184.0,-3.59,-4.65,-4.73,0,*5C
1487800994.66,21712,10.63,72176.5,-3.59,-4.61,-4.65,0,*5C
1487800995.87,21713,10.63,72166.8,-3.61,-4.65,-4.65,0,*52
1487800997.11,21714,10.63,72186.8,-3.61,-4.77,-4.77,0,*55
1487800998.33,21715,10.63,72186.3,-3.59,-4.65,-4.65,0,*5F
1487800999.54,21716,10.63,72176.5,-3.61,-4.57,-4.57,0,*57
1487801000.77,21717,10.63,72180.0,-3.59,-4.61,-4.65,0,*59
1487801001.99,21718,10.63,72180.0,-3.59,-4.53,-4.61,0,*53
1487801003.21,21719,10.63,72170.0,-3.59,-4.53,-4.61,0,*52
1487801004.43,21720,10.63,72166.0,-3.59,-4.53,-4.61,0,*58
1487801005.63,21721,10.63,72162.0,-3.57,-4.53,-4.61,0,*57
1487801006.86,21722,10.63,72164.5,-3.59,-4.61,-4.53,0,*5A
1487801008.08,21723,10.63,72160.5,-3.59,-4.61,-4.61,0,*5A
1487801009.31,21724,10.63,72154.0,-3.59,-4.53,-4.53,0,*5D
1487801010.53,21725,10.63,72152.3,-3.59,-4.49,-4.53,0,*57
1487801011.75,21726,10.63,72152.0,-3.59,-4.49,-4.53,0,*54
1487801012.95,21727,10.63,72152.5,-3.57,-4.49,-4.53,0,*5B
1487801014.17,21728,10.63,72154.3,-3.59,-4.49,-4.53,0,*5A
1487801015.4,21729,10.63,72150.5,-3.59,-4.53,-4.61,0,*51
1487801016.6,21730,10.63,72152.8,-3.57,-4.53,-4.61,0,*57
1487801017.8,21731,10.63,72148.3,-3.57,-4.61,-4.61,0,*57
1487801019.02,21732,10.63,72150.8,-3.57,-4.65,-4.73,0,*53
1487801020.23,21733,10.63,72150.5,-3.57,-4.65,-4.65,0,*55
1487801021.45,21734,10.63,72152.3,-3.55,-4.49,-4.57,0,*5F
1487801022.65,21735,10.63,72138.8,-3.57,-4.53,-4.65,0,*56
1487801023.85,21736,10.63,72136.3,-3.57,-4.65,-4.65,0,*50
1487801025.05,21737,10.63,72140.5,-3.57,-4.53,-4.53,0,*51
1487801026.25,21738,10.63,72136.5,-3.57,-4.49,-4.53,0,*55
1487801027.47,21739,10.63,72136.0,-3.59,-4.61,-4.53,0,*50
1487801028.67,21740,10.63,72136.0,-3.57,-4.53,-4.61,0,*50
1487801029.87,21741,10.63,72142.8,-3.57,-4.53,-4.61,0,*51
1487801031.07,21742,10.63,72150.5,-3.57,-4.49,-4.53,0,*58
1487801032.27,21743,10.63,72144.3,-3.57,-4.53,-4.53,0,*52
1487801033.47,21744,10.63,72140.0,-3.57,-4.49,-4.53,0,*5E
1487801034.67,21745,10.63,72146.5,-3.57,-4.61,-4.61,0,*54
1487801035.87,21746,10.63,72160.5,-3.57,-4.53,-4.53,0,*57
1487801037.07,21747,10.63,72166.0,-3.57,-4.53,-4.53,0,*56
1487801038.27,21748,10.63,72160.8,-3.57,-4.49,-4.53,0,*52
1487801039.47,21749,10.63,72168.0,-3.57,-4.49,-4.49,0,*58
1487801040.67,21750,10.63,72166.5,-3.57,-4.53,-4.61,0,*51
1487801041.87,21751,10.63,72164.8,-3.57,-4.53,-4.61,0,*50
1487801043.07,21752,10.63,72162.5,-3.57,-4.53,-4.65,0,*57
1487801044.27,21753,10.63,72154.8,-3.57,-4.53,-4.61,0,*52
1487801045.49,21754,10.63,72160.8,-3.55,-4.57,-4.57,0,*56
1487801046.69,21755,10.63,72166.5,-3.57,-4.53,-4.53,0,*55
1487801047.9,21756,10.63,72166.8,-3.57,-4.61,-4.65,0,*52
1487801049.16,21757,10.63,72170.0,-3.55,-4.69,-4.69,0,*55
1487801050.41,21758,10.63,72178.5,-3.57,-4.69,-4.81,0,*5E
1487801051.63,21759,10.63,72172.5,-3.57,-4.73,-4.65,0,*5E
1487801052.85,21760,10.63,72170.5,-3.55,-4.61,-4.61,0,*51
1487801054.08,21761,10.63,72166.0,-3.57,-4.65,-4.77,0,*51
1487801055.3,21762,10.63,72170.8,-3.57,-4.61,-4.73,0,*52
1487801056.5,21763,10.63,72148.5,-3.57,-4.53,-4.53,0,*50
1487801057.75,21764,10.63,72160.3,-3.55,-4.57,-4.69,0,*58
1487801058.98,21765,10.63,72162.3,-3.57,-4.61,-4.73,0,*55
1487801060.19,21766,10.63,72170.8,-3.55,-4.49,-4.61,0,*5D
1487801061.42,21767,10.63,72162.8,-3.57,-4.61,-4.73,0,*57
1487801062.66,21768,10.63,72150.0,-3.57,-4.77,-4.77,0,*5B
1487801063.92,21769,10.63,72150.0,-3.55,-4.69,-4.73,0,*53
1487801065.17,21770,10.63,72142.3,-3.57,-4.73,-4.77,0,*56
1487801066.41,21771,10.63,72140.5,-3.55,-4.61,-4.69,0,*59
1487801067.66,21772,10.63,72154.8,-3.57,-4.85,-4.85,0,*50
1487801068.9,21773,10.63,72122.0,-3.57,-4.85,-4.89,0,*5D
1487801070.12,21774,10.63,72140.0,-3.57,-4.85,-4.99,0,*5B
1487801071.34,21775,10.63,72138.3,-3.57,-4.85,-4.99,0,*5A
1487801072.61,21776,10.63,72162.0,-3.59,-4.85,-5.03,0,*55
1487801073.89,21777,10.63,72114.3,-3.59,-4.89,-5.07,0,*5C
1487801075.13,21778,10.63,72108.0,-3.57,-4.77,-4.77,0,*5A
1487801076.36,21779,10.63,72094.8,-3.57,-4.73,-4.65,0,*5C
1487801077.62,21780,10.63,72086.5,-3.59,-4.77,-4.85,0,*5E
1487801078.87,21781,10.63,72090.0,-3.59,-4.89,-4.99,0,*53
1487801080.12,21782,10.63,72058.0,-3.59,-5.03,-4.99,0,*53
1487801081.31,21783,10.63,72064.0,-3.57,-4.99,-4.99,0,*5E
1487801082.54,21784,10.63,72046.5,-3.57,-4.99,-5.03,0,*5B
1487801083.73,21785,10.63,72050.8,-3.57,-4.99,-4.99,0,*58
1487801084.98,21786,10.63,72066.0,-3.57,-4.89,-4.89,0,*5B
1487801086.23,21787,10.63,72080.8,-3.57,-4.73,-4.85,0,*53
1487801087.48,21788,10.63,72062.3,-3.57,-4.73,-4.85,0,*5C
1487801088.74,21789,10.63,72048.5,-3.59,-4.77,-4.77,0,*5A
1487801090.01,21790,10.63,72042.0,-3.59,-4.77,-4.77,0,*52
1487801091.23,21791,10.63,72066.8,-3.59,-4.61,-4.65,0,*57
1487801092.43,21792,10.63,72074.3,-3.57,-4.53,-4.61,0,*5F
1487801093.63,21793,10.63,72076.3,-3.57,-4.41,-4.49,0,*57
1487801094.83,21794,10.63,72080.0,-3.57,-4.37,-4.41,0,*59
1487801096.03,21795,10.63,72090.0,-3.57,-4.33,-4.41,0,*5C
1487801097.25,21796,10.63,72104.0,-3.55,-4.29,-4.33,0,*53
1487801098.47,21797,10.63,72052.8,-3.55,-4.45,-4.57,0,*5A
1487801099.69,21798,10.63,72104.5,-3.55,-4.57,-4.61,0,*53
1487801100.96,21799,10.63,72094.8,-3.55,-4.69,-4.69,0,*57
1487801102.2,21800,10.63,72078.3,-3.57,-4.77,-4.77,0,*5A
1487801103.47,21801,10.63,72086.8,-3.55,-4.73,-4.81,0,*54
1487801104.71,21802,10.63,72090.8,-3.57,-4.85,-4.85,0,*58
1487801105.97,21803,10.63,72092.8,-3.57,-4.89,-4.89,0,*59
1487801107.22,21804,10.63,72088.8,-3.57,-4.89,-4.85,0,*52
1487801108.46,21805,10.63,72084.5,-3.57,-4.77,-4.77,0,*5F
1487801109.73,21806,10.63,72052.8,-3.55,-4.81,-4.85,0,*5A
1487801110.95,21807,10.63,72066.0,-3.57,-4.65,-4.77,0,*5E
1487801112.22,21808,10.63,72066.3,-3.55,-4.69,-4.69,0,*50
1487801113.44,21809,10.63,72058.3,-3.57,-4.65,-4.73,0,*54
1487801114.7,21810,10.63,72068.5,-3.55,-4.69,-4.69,0,*59
1487801115.95,21811,10.63,72064.8,-3.57,-4.73,-4.73,0,*5A
1487801117.2,21812,10.63,72110.0,-3.57,-4.73,-4.85,0,*50
1487801118.42,21813,10.63,72136.0,-3.57,-4.65,-4.77,0,*5B
1487801119.67,21814,10.63,72150.3,-3.57,-4.73,-4.77,0,*5B
1487801120.93,21815,10.63,72118.5,-3.55,-4.69,-4.73,0,*57
1487801122.16,21816,10.63,72146.5,-3.55,-4.57,-4.57,0,*5F
1487801123.36,21817,10.63,72170.3,-3.57,-4.61,-4.65,0,*58
1487801124.56,21818,10.63,72154.5,-3.57,-4.61,-4.65,0,*57
1487801125.8,21819,10.63,72170.3,-3.57,-4.77,-4.77,0,*52
1487801127.03,21820,10.63,72186.8,-3.57,-4.61,-4.69,0,*50
1487801128.23,21821,10.63,72200.0,-3.57,-4.61,-4.65,0,*5D
1487801129.45,21822,10.63,72194.5,-3.57,-4.53,-4.73,0,*58
1487801130.7,21823,10.63,72174.0,-3.55,-4.57,-4.69,0,*54
1487801131.97,21824,10.63,72160.0,-3.55,-4.69,-4.69,0,*5E
1487801133.21,21825,10.63,72210.5,-3.57,-4.73,-4.73,0,*5D
1487801134.46,21826,10.63,72172.5,-3.57,-4.73,-4.77,0,*5A
1487801135.7,21827,10.63,72180.3,-3.57,-4.85,-4.85,0,*5F
1487801136.97,21828,10.63,72210.3,-3.55,-4.69,-4.73,0,*59
1487801138.21,21829,10.63,72188.5,-3.57,-4.73,-4.77,0,*55
1487801139.43,21830,10.63,72152.0,-3.57,-4.85,-4.99,0,*54
1487801140.67,21831,10.63,72154.3,-3.57,-4.85,-4.77,0,*55
1487801141.89,21832,10.63,72130.8,-3.57,-4.65,-4.73,0,*5C
1487801143.12,21833,10.63,72124.3,-3.55,-4.57,-4.57,0,*58
1487801144.32,21834,10.63,72138.8,-3.57,-4.61,-4.65,0,*59
1487801145.55,21835,10.63,72144.5,-3.57,-4.61,-4.73,0,*5F
1487801146.75,21836,10.63,72180.0,-3.57,-4.65,-4.65,0,*5F
1487801147.95,21837,10.63,72188.3,-3.57,-4.53,-4.61,0,*5F
1487801149.22,21838,10.63,72172.3,-3.55,-4.81,-4.81,0,*53
1487801150.46,21839,10.63,72146.5,-3.57,-4.85,-4.85,0,*50
1487801151.71,21840,10.63,72160.8,-3.57,-4.73,-4.77,0,*5A
1487801152.91,21841,10.63,72176.8,-3.57,-4.65,-4.65,0,*5F
1487801154.13,21842,10.63,72166.5,-3.57,-4.65,-4.73,0,*5B
1487801155.38,21843,10.63,72172.5,-3.57,-4.73,-4.85,0,*54
1487801156.61,21844,10.63,72188.5,-3.57,-4.61,-4.73,0,*59
1487801157.81,21845,10.63,72190.5,-3.57,-4.65,-4.65,0,*5B
1487801159.01,21846,10.63,72200.5,-3.57,-4.53,-4.65,0,*5D
1487801160.26,21847,10.63,72196.8,-3.55,-4.61,-4.69,0,*53
1487801161.46,21848,10.63,72192.5,-3.57,-4.49,-4.53,0,*5D
1487801162.68,21849,10.63,72204.8,-3.55,-4.49,-4.53,0,*5E
1487801163.9,21850,10.63,72200.3,-3.57,-4.61,-4.73,0,*5C
1487801165.12,21851,10.63,72112.3,-3.57,-4.65,-4.77,0,*5D
1487801166.33,21852,10.63,72108.0,-3.57,-4.61,-4.65,0,*59
1487801167.57,21853,10.63,72104.3,-3.55,-4.61,-4.69,0,*56
1487801168.82,21854,10.63,72132.0,-3.57,-4.77,-4.85,0,*56
1487801170.06,21855,10.63,72168.0,-3.57,-4.85,-4.85,0,*5A
1487801171.29,21856,10.63,72148.8,-3.55,-4.61,-4.65,0,*5F
1487801172.53,21857,10.63,72144.3,-3.55,-4.61,-4.69,0,*52
1487801173.73,21858,10.63,72144.8,-3.57,-4.65,-4.65,0,*57
1487801174.99,21859,10.63,72148.0,-3.55,-4.57,-4.69,0,*59
1487801176.21,21860,10.63,72134.0,-3.57,-4.61,-4.73,0,*5F
1487801177.46,21861,10.63,72108.5,-3.57,-4.73,-4.73,0,*5D
1487801178.72,21862,10.63,72088.0,-3.55,-4.69,-4.73,0,*57
1487801179.96,21863,10.63,72070.8,-3.57,-4.73,-4.77,0,*5B
1487801181.23,21864,10.63,72070.5,-3.55,-4.73,-4.85,0,*53
1487801182.48,21865,10.63,72114.8,-3.57,-4.85,-4.85,0,*59
1487801183.74,21866,10.63,72118.0,-3.55,-4.73,-4.73,0,*58
1487801184.99,21867,10.63,72116.3,-3.57,-4.73,-4.77,0,*5F
1487801186.25,21868,10.63,72122.0,-3.55,-4.73,-4.81,0,*5B
1487801187.52,21869,10.63,72122.5,-3.55,-4.73,-4.81,0,*5A
1487801188.77,21870,10.63,72140.0,-3.57,-4.73,-4.77,0,*59
1487801190.02,21871,10.63,72144.3,-3.57,-4.73,-4.85,0,*55
1487801191.28,21872,10.63,72140.5,-3.55,-4.69,-4.81,0,*5B
1487801192.53,21873,10.63,72148.3,-3.57,-4.85,-4.89,0,*52
1487801193.8,21874,10.63,72158.3,-3.55,-4.81,-4.81,0,*5B
1487801195.04,21875,10.63,72154.0,-3.57,-4.73,-4.85,0,*51
1487801196.29,21876,10.63,72148.3,-3.57,-4.85,-4.85,0,*5B
1487801197.56,21877,10.63,72152.3,-3.55,-4.81,-4.85,0,*5C
1487801198.8,21878,10.63,72152.5,-3.57,-4.77,-4.85,0,*58
1487801200.05,21879,10.63,72154.0,-3.57,-4.73,-4.77,0,*50
1487801201.27,21880,10.63,72160.5,-3.57,-4.65,-4.77,0,*51
1487801202.52,21881,10.63,72188.3,-3.57,-4.73,-4.77,0,*57
1487801203.79,21882,10.63,72128.0,-3.59,-4.73,-4.85,0,*57
1487801205.03,21883,10.63,72196.3,-3.57,-4.77,-4.89,0,*50
1487801206.3,21884,10.63,72168.8,-3.59,-4.73,-4.77,0,*5C
1487801207.57,21885,10.63,72166.5,-3.59,-4.77,-4.85,0,*54
1487801208.84,21886,10.63,72136.8,-3.59,-4.77,-4.89,0,*5B
1487801210.05,21887,10.63,72102.0,-3.59,-4.99,-4.99,0,*5B
1487801211.33,21888,10.63,72106.8,-3.59,-4.89,-4.85,0,*58
1487801212.57,21889,10.63,72106.0,-3.59,-4.89,-4.99,0,*54
1487801213.82,21890,10.63,72096.3,-3.59,-4.99,-5.11,0,*5C
1487801215.1,21891,10.63,72106.8,-3.59,-5.03,-5.11,0,*5F
1487801216.35,21892,10.63,72114.0,-3.59,-4.99,-5.11,0,*5E
1487801217.61,21893,10.63,72122.0,-3.59,-4.77,-4.89,0,*5F
1487801218.88,21894,10.63,72124.3,-3.59,-4.77,-4.85,0,*54
1487801220.12,21895,10.63,72112.8,-3.57,-4.85,-4.77,0,*5B
1487801221.4,21896,10.63,72098.3,-3.59,-4.93,-5.03,0,*53
1487801222.64,21897,10.63,72118.5,-3.61,-4.93,-5.03,0,*59
1487801223.9,21898,10.63,72124.8,-3.57,-4.89,-4.85,0,*57
1487801225.14,21899,10.63,72128.0,-3.61,-4.81,-4.81,0,*5F
1487801226.42,21900,10.63,72128.3,-3.59,-4.73,-4.85,0,*5C
1487801227.64,21901,10.63,72148.3,-3.59,-4.65,-4.61,0,*50
1487801228.84,21902,10.63,72160.5,-3.57,-4.61,-4.65,0,*5D
1487801230.12,21903,10.63,72170.8,-3.59,-4.73,-4.85,0,*5F
1487801231.36,21904,10.63,72166.5,-3.57,-4.85,-4.85,0,*5F
1487801232.63,21905,10.63,72166.3,-3.59,-4.85,-4.85,0,*50
1487801233.91,21906,10.63,72124.3,-3.59,-4.89,-4.89,0,*53
1487801235.15,21907,10.63,72112.0,-3.61,-4.93,-4.93,0,*59
1487801236.4,21908,10.63,72110.8,-3.61,-4.89,-4.89,0,*56
1487801237.65,21909,10.63,72110.5,-3.57,-4.85,-4.89,0,*5E
1487801238.9,21910,10.63,72116.8,-3.59,-4.99,-5.03,0,*56
1487801240.14,21911,10.63,72114.5,-3.61,-4.89,-4.93,0,*55
1487801241.39,21912,10.63,72108.8,-3.61,-4.93,-5.15,0,*52
1487801242.64,21913,10.63,72116.8,-3.61,-5.07,-5.15,0,*5F
1487801243.92,21914,10.63,72112.8,-3.59,-4.89,-4.89,0,*50
1487801245.17,21915,10.63,72108.5,-3.61,-4.81,-4.81,0,*5A
1487801246.41,21916,10.63,72114.0,-3.61,-4.77,-4.81,0,*50
1487801247.64,21917,10.63,72122.0,-3.59,-4.61,-4.65,0,*57
1487801248.84,21918,10.63,72126.3,-3.61,-4.65,-4.57,0,*56
1487801250.05,21919,10.63,72146.0,-3.61,-4.57,-4.65,0,*57
1487801251.25,21920,10.63,72146.5,-3.61,-4.65,-4.65,0,*5C
1487801252.48,21921,10.63,72140.0,-3.61,-4.65,-4.69,0,*51
1487801253.74,21922,10.63,72140.3,-3.59,-4.73,-4.73,0,*55
1487801254.97,21923,10.63,72136.3,-3.59,-4.61,-4.65,0,*50
1487801256.17,21924,10.63,72146.5,-3.61,-4.65,-4.57,0,*59
1487801257.4,21925,10.63,72166.8,-3.59,-4.61,-4.65,0,*56
1487801258.6,21926,10.63,72172.8,-3.57,-4.61,-4.61,0,*5F
1487801259.82,21927,10.63,72178.0,-3.59,-4.53,-4.61,0,*51
1487801261.03,21928,10.63,72180.5,-3.61,-4.57,-4.57,0,*54
1487801262.26,21929,10.63,72172.3,-3.59,-4.61,-4.61,0,*5E
1487801263.45,21930,10.63,72188.0,-3.61,-4.53,-4.53,0,*5D
1487801264.65,21931,10.63,72188.5,-3.57,-4.53,-4.61,0,*58
1487801265.92,21932,10.63,72182.0,-3.59,-4.73,-4.77,0,*50
1487801267.19,21933,10.63,72178.3,-3.59,-4.77,-4.85,0,*58
1487801268.42,21934,10.63,72180.0,-3.61,-4.65,-4.69,0,*55
1487801269.64,21935,10.63,72176.0,-3.61,-4.65,-4.77,0,*5B
1487801270.84,21936,10.63,72172.8,-3.57,-4.61,-4.61,0,*5E
1487801272.07,21937,10.63,72178.5,-3.59,-4.53,-4.53,0,*51
1487801273.31,21938,10.63,72174.5,-3.55,-4.57,-4.69,0,*5F
1487801274.56,21939,10.63,72172.0,-3.61,-4.85,-4.89,0,*58
1487801275.81,21940,10.63,72176.0,-3.57,-4.85,-4.85,0,*5F
1487801277.07,21941,10.63,72174.8,-3.59,-4.77,-4.77,0,*50
1487801278.3,21942,10.63,72180.8,-3.59,-4.61,-4.65,0,*57
1487801279.52,21943,10.63,72182.8,-3.59,-4.53,-4.53,0,*52
1487801280.72,21944,10.63,72174.8,-3.57,-4.61,-4.53,0,*5A
1487801281.93,21945,10.63,72172.0,-3.61,-4.57,-4.57,0,*5F
1487801283.13,21946,10.63,72172.8,-3.57,-4.53,-4.65,0,*5C
1487801284.36,21947,10.63,72170.5,-3.59,-4.61,-4.65,0,*52
1487801285.58,21948,10.63,72170.5,-3.59,-4.53,-4.61,0,*58
1487801286.8,21949,10.63,72170.3,-3.59,-4.53,-4.53,0,*58
1487801288.0,21950,10.63,72174.8,-3.57,-4.53,-4.61,0,*5F
1487801289.23,21951,10.63,72172.0,-3.59,-4.61,-4.61,0,*51
1487801290.45,21952,10.63,72176.5,-3.59,-4.65,-4.61,0,*56
1487801291.65,21953,10.63,72180.0,-3.57,-4.65,-4.65,0,*5D
1487801292.86,21954,10.63,72170.5,-3.57,-4.61,-4.65,0,*5E
1487801294.08,21955,10.63,72176.3,-3.55,-4.57,-4.61,0,*5C
1487801295.29,21956,10.63,72188.0,-3.57,-4.61,-4.61,0,*58
1487801296.51,21957,10.63,72182.5,-3.59,-4.65,-4.65,0,*57
1487801297.76,21958,10.63,72182.0,-3.59,-4.65,-4.73,0,*5F
1487801298.98,21959,10.63,72190.0,-3.57,-4.65,-4.73,0,*50
1487801300.23,21960,10.63,72192.0,-3.59,-4.65,-4.73,0,*54
1487801301.46,21961,10.56,72156.3,-3.57,-4.61,-4.73,0,*5F
1487801302.66,21962,10.63,72118.8,-3.57,-4.61,-4.65,0,*5B
1487801303.86,21963,10.63,72074.5,-3.57,-4.65,-4.65,0,*5E
1487801305.13,21964,10.63,72080.8,-3.59,-4.73,-4.85,0,*5E
1487801306.38,21965,10.63,72102.8,-3.57,-4.73,-4.77,0,*5C
1487801307.6,21966,10.63,72154.3,-3.59,-4.65,-4.65,0,*55
1487801308.85,21967,10.63,72136.8,-3.59,-4.65,-4.73,0,*53
1487801310.1,21968,10.63,72146.5,-3.57,-4.73,-4.85,0,*5C